#timestamp,LO_Frequency,Hit,StdDev 
1526166015.2,286047001.2,N
1526166035.0,286047000.5,N
1526166035.9,286047000.5,N
1526166055.8,286047000.6,N
1526166075.6,286046999.5,N
1526166095.5,286047004.3,N
1526166115.3,286047001.7,N
1526166135.1,286047003.9,N
1526166155.9,286047001.6,N
1526166175.7,286047000.8,N
1526166195.5,286046998.4,N
1526166215.4,286046998.8,N
1526166235.2,286046999.6,N
1526166255.1,286046999.3,N
1526166256.0,286046999.3,N
1526166275.8,286046999.0,N
1526166295.6,286046997.1,N
1526166315.5,286046998.9,N
1526166335.3,286046997.5,N
1526166355.2,286046997.8,N
1526166375.9,286046999.5,N
1526166395.7,286047000.8,N
1526166415.6,286046999.6,N
1526166435.4,286046999.2,N
1526166455.3,286046997.0,N
1526166475.1,286046996.5,N
1526166476.0,286046996.5,N
1526166495.8,286046999.4,N
1526166515.7,286046999.1,N
1526166535.5,286046997.0,N
1526166555.3,286046996.5,N
1526166575.2,286046998.7,N
1526166595.0,286046997.1,N
1526166595.9,286046997.1,N
1526166615.8,286046999.3,N
1526166635.6,286046998.1,N
1526166655.5,286046999.4,N
1526166675.3,286046997.1,N
1526166695.1,286046997.5,N
1526166715.9,286046997.3,N
1526166735.7,286046998.5,N
1526166755.5,286046998.6,N
1526166775.4,286046998.8,N
1526166795.2,286046997.4,N
1526166815.1,286046999.4,N
1526166816.0,286046999.4,N
1526166835.8,286047000.9,N
1526166855.6,286046998.6,N
1526166875.5,286046998.8,N
1526166895.3,286046996.8,N
1526166915.1,286046999.6,N
1526166935.9,286046999.6,N
1526166955.7,286046997.7,N
1526166975.6,286046997.9,N
1526166995.4,286046999.4,N
1526167015.2,286046997.1,N
1526167035.1,286046997.9,N
1526167036.0,286046997.9,N
1526167055.8,286046995.4,Y
1526167075.7,286046997.4,P
1526167095.5,286046997.4,P
1526167115.3,286046999.0,N
1526167135.2,286046996.9,Y
1526167155.0,286046998.3,P
1526167155.9,286046998.3,P
1526167175.7,286046998.7,P
1526167195.6,286046998.4,Y
1526167215.4,286047002.0,P
1526167235.3,286047002.4,N
1526167255.1,286046999.7,N
1526167275.8,286047002.8,N
1526167295.7,286047000.1,N
1526167315.5,286046999.7,N
1526167335.4,286047000.5,N
1526167355.2,286046999.7,N
1526167375.0,286047002.4,N
1526167375.9,286047002.4,N
1526167395.8,286046999.8,N
1526167415.6,286047000.0,N
1526167435.4,286047000.0,N
1526167455.3,286047002.4,N
1526167475.1,286047002.0,N
1526167495.9,286047003.2,N
1526167515.7,286047003.1,N
1526167535.5,286047001.5,N
1526167555.4,286047002.8,N
1526167575.2,286047002.2,N
1526167595.0,286047001.6,N
1526167595.9,286047001.6,N
1526167615.8,286047002.4,N
1526167635.6,286046999.7,N
1526167655.5,286047000.3,N
1526167675.3,286047000.0,N
1526167695.1,286046999.3,N
1526167715.9,286046998.8,N
1526167735.7,286046999.5,N
1526167755.5,286047000.9,N
1526167775.4,286047000.9,N
1526167795.2,286047000.9,N
1526167815.1,286047000.3,N
1526167816.0,286047000.3,N
1526167835.8,286046998.1,N
1526167855.6,286047001.2,N
1526167875.5,286046997.5,N
1526167895.3,286046995.5,Y
1526167915.2,286046995.2,P
1526167935.9,286046996.1,N
1526167955.7,286046996.2,N
1526167975.6,286046997.6,N
1526167995.4,286046995.0,N
1526168015.2,286046995.7,N
1526168035.1,286046993.4,Y
1526168036.0,286046993.4,P
1526168055.8,286046999.0,N
1526168075.7,286046997.8,N
1526168095.5,286046996.7,N
1526168115.3,286046997.2,N
1526168135.2,286046995.4,N
1526168155.0,286046997.6,N
1526168155.9,286046997.6,N
1526168175.8,286046999.2,N
1526168195.6,286046996.9,N
1526168215.4,286046997.5,N
1526168235.3,286046997.5,N
1526168255.1,286046998.7,N
1526168275.8,286047000.9,N
1526168295.7,286046998.3,N
1526168315.5,286047002.2,N
1526168335.3,286047000.5,N
1526168355.2,286047000.6,N
1526168375.0,286047000.2,N
1526168375.9,286047000.2,N
1526168395.8,286047000.2,N
1526168415.6,286046998.3,N
1526168435.4,286046999.5,N
1526168455.3,286046999.5,N
1526168475.1,286046998.9,N
1526168495.9,286046999.6,N
1526168515.7,286046998.1,N
1526168535.5,286046998.2,N
1526168555.4,286046998.8,N
1526168575.2,286046998.9,N
1526168595.0,286047002.8,N
1526168595.9,286047002.8,N
1526168615.8,286046999.7,N
1526168635.6,286047002.5,N
1526168655.5,286047004.0,N
1526168675.3,286047003.7,N
1526168695.1,286047001.7,N
1526168715.9,286047004.0,N
1526168735.7,286047004.4,N
1526168755.5,286047004.1,N
1526168775.4,286047002.0,N
1526168795.2,286047000.2,N
1526168815.1,286047001.2,N
1526168816.0,286047001.2,N
1526168835.8,286046999.1,N
1526168855.6,286047001.1,N
1526168875.5,286047000.4,N
1526168895.3,286046998.5,N
1526168915.1,286046998.6,N
1526168935.9,286046999.9,N
1526168955.7,286047001.5,N
1526168975.6,286047002.3,N
1526168995.4,286047002.5,N
1526169015.2,286047002.6,N
1526169035.1,286047000.0,N
1526169036.0,286047000.0,N
1526169055.8,286047000.2,N
1526169075.6,286047000.6,N
1526169095.5,286047002.8,N
1526169115.3,286047000.6,N
1526169135.2,286046999.9,N
1526169155.9,286047000.5,N
1526169175.7,286047000.4,N
1526169195.6,286047000.3,N
1526169215.4,286047002.2,N
1526169235.2,286047002.7,N
1526169255.1,286047002.1,N
1526169256.0,286047002.1,N
1526169275.8,286047002.3,N
1526169295.7,286046999.7,N
1526169315.5,286047002.3,N
1526169335.3,286047001.4,N
1526169355.2,286047002.2,N
1526169375.0,286047003.7,N
1526169375.9,286047003.7,N
1526169395.8,286047002.8,N
1526169415.6,286047001.4,N
1526169435.4,286047003.7,N
1526169455.3,286047004.2,Y
1526169475.1,286047002.4,P
1526169495.9,286047000.5,N
1526169515.7,286047000.2,N
1526169535.5,286046999.8,N
1526169555.4,286047002.8,N
1526169575.2,286047000.3,N
1526169595.1,286047001.2,N
1526169596.0,286047001.2,N
